Chehalis, WA
on Sunday, February 10, 2013

Sunday
Previous Day Next Day
Daily Summary
 ActualAverage (KOLM)Record (KOLM)
Temperature
Mean Temperature °F 41°F  
Max Temperature 46°F 49°F 66°F (1963)
Min Temperature 41°F 33°F 15°F (1982)
Degree Days
Heating Degree Days 22 24  
Month to date heating degree days 241  
Since 1 July heating degree days 3292  
Cooling Degree Days 0 0  
Month to date cooling degree days 0  
Year to date cooling degree days 0  
Moisture
Dew Point 38°F   
Average Humidity 83    
Maximum Humidity 93    
Minimum Humidity 66    
Precipitation
Precipitation 0.00 in 0.20 in 1.22 in (1990)
Month to date precipitation 2.03  
Year to date precipitation 9.87  
Wind
Wind Speed 4 mph   
Max Wind Speed 9 mph   
Max Gust Speed mph   
Visibility 10 miles   
Events     

Key: T is trace of precipitation, MM is missing value
Source: NWS Daily Summary
Time(PST)TemperatureDew PointHumidity Pressure Visibility Wind DirectionWind SpeedGust SpeedPrecipitationEvents Conditions
12:15 AM 41.0°F 39.2°F 93% 30.34 in 9.0 miles North 3.5 mph - N/A   Overcast
12:35 AM 41.0°F 39.2°F 93% 30.34 in 10.0 miles North 3.5 mph - N/A   Overcast
12:55 AM 41.0°F 37.4°F 87% 30.34 in 10.0 miles NNE 4.6 mph - N/A   Overcast
1:15 AM 41.0°F 37.4°F 87% 30.34 in 10.0 miles North 4.6 mph - N/A   Overcast
1:35 AM 41.0°F 39.2°F 93% 30.35 in 10.0 miles North 4.6 mph - N/A   Overcast
1:55 AM 41.0°F 39.2°F 93% 30.35 in 10.0 miles North 5.8 mph - N/A   Overcast
2:15 AM 41.0°F 39.2°F 93% 30.35 in 10.0 miles NNE 5.8 mph - N/A   Overcast
2:35 AM 41.0°F 39.2°F 93% 30.35 in 10.0 miles North 3.5 mph - N/A   Overcast
2:55 AM 41.0°F 39.2°F 93% 30.35 in 9.0 miles NNE 3.5 mph - N/A   Overcast
3:15 AM 41.0°F 39.2°F 93% 30.35 in 10.0 miles NNW 3.5 mph - N/A   Overcast
3:35 AM 41.0°F 39.2°F 93% 30.34 in 10.0 miles NNW 3.5 mph - N/A   Overcast
3:55 AM 41.0°F 39.2°F 93% 30.35 in 10.0 miles NNE 3.5 mph - N/A   Overcast
4:15 AM 41.0°F 39.2°F 93% 30.35 in 10.0 miles Calm Calm - N/A   Overcast
4:35 AM 41.0°F 39.2°F 93% 30.35 in 10.0 miles Calm Calm - N/A   Overcast
4:55 AM 41.0°F 39.2°F 93% 30.36 in 10.0 miles NNW 3.5 mph - N/A   Overcast
5:15 AM 41.0°F 39.2°F 93% 30.36 in 10.0 miles NNW 3.5 mph - N/A   Overcast
5:35 AM 41.0°F 39.2°F 93% 30.35 in 10.0 miles Calm Calm - N/A   Overcast
5:55 AM 41.0°F 39.2°F 93% 30.35 in 10.0 miles Calm Calm - N/A   Overcast
6:15 AM 41.0°F 39.2°F 93% 30.36 in 7.0 miles Calm Calm - N/A   Overcast
6:35 AM 41.0°F 39.2°F 93% 30.36 in 7.0 miles NNW 4.6 mph - N/A   Overcast
6:55 AM 41.0°F 39.2°F 93% 30.36 in 9.0 miles Calm Calm - N/A   Overcast
7:15 AM 41.0°F 39.2°F 93% 30.36 in 8.0 miles North 3.5 mph - N/A   Overcast
7:35 AM 41.0°F 39.2°F 93% 30.37 in 10.0 miles NNW 4.6 mph - N/A   Overcast
7:55 AM 41.0°F 39.2°F 93% 30.37 in 10.0 miles North 3.5 mph - N/A   Overcast
8:15 AM 41.0°F 39.2°F 93% 30.38 in 10.0 miles NNE 4.6 mph - N/A   Overcast
8:35 AM 41.0°F 39.2°F 93% 30.38 in 10.0 miles North 3.5 mph - N/A   Overcast
8:55 AM 41.0°F 39.2°F 93% 30.38 in 5.0 miles NNW 4.6 mph - N/A   Overcast
9:15 AM 42.8°F 39.2°F 87% 30.37 in 10.0 miles North 5.8 mph - N/A   Overcast
9:35 AM 42.8°F 39.2°F 87% 30.37 in 10.0 miles North 4.6 mph - N/A   Overcast
9:55 AM 42.8°F 37.4°F 81% 30.38 in 10.0 miles NNE 5.8 mph - N/A   Overcast
10:15 AM 44.6°F 37.4°F 76% 30.38 in 10.0 miles North 3.5 mph - N/A   Overcast
10:35 AM 44.6°F 37.4°F 76% 30.38 in 10.0 miles NNW 4.6 mph - N/A   Overcast
10:55 AM 44.6°F 37.4°F 76% 30.38 in 10.0 miles NNW 5.8 mph - N/A   Overcast
11:15 AM 44.6°F 37.4°F 76% 30.38 in 10.0 miles North 6.9 mph - N/A   Overcast
11:35 AM 44.6°F 37.4°F 76% 30.38 in 10.0 miles NNW 4.6 mph - N/A   Overcast
11:55 AM 44.6°F 37.4°F 76% 30.37 in 10.0 miles North 4.6 mph - N/A   Overcast
12:15 PM 44.6°F 35.6°F 71% 30.37 in 10.0 miles North 5.8 mph - N/A   Overcast
12:35 PM 46.4°F 35.6°F 66% 30.37 in 10.0 miles North 9.2 mph - N/A   Overcast
12:55 PM 44.6°F 35.6°F 71% 30.36 in 10.0 miles North 5.8 mph - N/A   Overcast
1:15 PM 46.4°F 35.6°F 66% 30.36 in 10.0 miles NNW 4.6 mph - N/A   Overcast
1:35 PM 46.4°F 35.6°F 66% 30.35 in 10.0 miles NNE 8.1 mph - N/A   Overcast
1:55 PM 46.4°F 35.6°F 66% 30.35 in 10.0 miles North 5.8 mph - N/A   Overcast
2:15 PM 46.4°F 37.4°F 71% 30.35 in 10.0 miles North 4.6 mph - N/A   Overcast
2:35 PM 46.4°F 37.4°F 71% 30.35 in 10.0 miles NNW 4.6 mph - N/A   Overcast
2:55 PM 46.4°F 37.4°F 71% 30.35 in 10.0 miles NNW 5.8 mph - N/A   Overcast
3:15 PM 46.4°F 37.4°F 71% 30.35 in 10.0 miles NNW 3.5 mph - N/A   Overcast
3:35 PM 44.6°F 37.4°F 76% 30.35 in 10.0 miles NNW 5.8 mph - N/A   Overcast
3:55 PM 44.6°F 37.4°F 76% 30.36 in 10.0 miles North 9.2 mph - N/A   Overcast
4:15 PM 44.6°F 37.4°F 76% 30.36 in 10.0 miles North 4.6 mph - N/A   Overcast
4:35 PM 44.6°F 37.4°F 76% 30.36 in 8.0 miles North 4.6 mph - N/A   Overcast
4:55 PM 44.6°F 37.4°F 76% 30.35 in 7.0 miles North 4.6 mph - N/A   Overcast
5:15 PM 44.6°F 37.4°F 76% 30.35 in 8.0 miles North 4.6 mph - N/A   Overcast
5:35 PM 44.6°F 37.4°F 76% 30.35 in 5.0 miles North 4.6 mph - N/A   Haze
5:55 PM 44.6°F 37.4°F 76% 30.35 in 9.0 miles North 3.5 mph - N/A   Overcast
6:15 PM 44.6°F 37.4°F 76% 30.36 in 8.0 miles NNW 3.5 mph - N/A   Overcast
6:35 PM 44.6°F 37.4°F 76% 30.36 in 8.0 miles NNW 4.6 mph - N/A   Overcast
6:55 PM 44.6°F 37.4°F 76% 30.35 in 9.0 miles North 3.5 mph - N/A   Overcast
7:15 PM 44.6°F 37.4°F 76% 30.36 in 10.0 miles North 3.5 mph - N/A   Overcast
7:35 PM 44.6°F 37.4°F 76% 30.36 in 10.0 miles Calm Calm - N/A   Overcast
7:55 PM 42.8°F 37.4°F 81% 30.36 in 10.0 miles North 3.5 mph - N/A   Overcast
8:15 PM 42.8°F 37.4°F 81% 30.35 in 10.0 miles Calm Calm - N/A   Overcast
8:35 PM 42.8°F 35.6°F 76% 30.35 in 10.0 miles Calm Calm - N/A   Overcast
8:55 PM 42.8°F 37.4°F 81% 30.36 in 9.0 miles Calm Calm - N/A   Overcast
9:15 PM 41.0°F 37.4°F 87% 30.35 in 10.0 miles Calm Calm - N/A   Overcast
9:35 PM 41.0°F 37.4°F 87% 30.35 in 9.0 miles Calm Calm - N/A   Overcast
9:55 PM 41.0°F 37.4°F 87% 30.34 in 10.0 miles Calm Calm - N/A   Overcast
10:15 PM 41.0°F 37.4°F 87% 30.35 in 10.0 miles WNW 3.5 mph - N/A   Overcast
10:35 PM 41.0°F 37.4°F 87% 30.34 in 10.0 miles East 4.6 mph - N/A   Overcast
10:55 PM 41.0°F 37.4°F 87% 30.34 in 8.0 miles Calm Calm - N/A   Overcast
11:15 PM 41.0°F 37.4°F 87% 30.34 in 10.0 miles Calm Calm - N/A   Overcast
11:35 PM 41.0°F 37.4°F 87% 30.35 in 10.0 miles Calm Calm - N/A   Overcast
11:55 PM 41.0°F 37.4°F 87% 30.35 in 10.0 miles Calm Calm - N/A   Overcast
Moon Phase
Feb. 10 Feb. 17 Feb. 25 Mar. 04 Mar. 11
Sunrise:07:23 AM (PST) Moon Rise:07:11 AM (PST)2/10
Sunset:05:29 PM (PST) Moon Set:06:33 PM (PST)2/10

Copyright © 2014 The Weather Underground, Inc.